This is the latest recevied weather packets stored in our database for station/object HOWARD. If no packets are shown the sender has not sent any weather packets the latest 10 day(s).
| Time | Temp. | Humidity | Pressure | Rain* | Wind** | Luminosity | Snow |
|---|---|---|---|---|---|---|---|
| 1777993308 | 6.67° C | 53% | 1009.2 hPa | 0 mm | - | - | - |
| 1777992708 | 6.11° C | 55% | 1009.1 hPa | 0 mm | - | - | - |
| 1777992108 | 6.11° C | 57% | 1009 hPa | 0 mm | - | - | - |
| 1777991508 | 5.56° C | 60% | 1008.9 hPa | 0 mm | - | - | - |
| 1777990908 | 5.56° C | 60% | 1008.8 hPa | 0 mm | - | - | - |
| 1777989759 | 5.56° C | 57% | 1008.6 hPa | 0 mm | - | - | - |
| 1777989708 | 5.56° C | 57% | 1008.6 hPa | 0 mm | - | - | - |
| 1777989108 | 5.56° C | 56% | 1008.6 hPa | 0 mm | - | - | - |
| 1777988508 | 5° C | 61% | 1009 hPa | 0 mm | - | - | - |
| 1777987945 | 5° C | 62% | 1009 hPa | 0 mm | - | - | - |
| 1777987909 | 5° C | 62% | 1009 hPa | 0 mm | - | - | - |
| 1777987360 | 5° C | 62% | 1008.8 hPa | 0 mm | - | - | - |
| 1777987308 | 5° C | 62% | 1008.8 hPa | 0 mm | - | - | - |
| 1777986708 | 5° C | 64% | 1008.7 hPa | 0 mm | - | - | - |
| 1777986151 | 4.44° C | 68% | 1008.6 hPa | 0 mm | - | - | - |
| 1777986108 | 4.44° C | 68% | 1008.6 hPa | 0 mm | - | - | - |
| 1777985508 | 3.89° C | 74% | 1008.5 hPa | 0 mm | - | - | - |
| 1777984908 | 3.89° C | 76% | 1008.4 hPa | 0 mm | - | - | - |
| 1777984308 | 3.89° C | 78% | 1008.3 hPa | 0 mm | - | - | - |
| 1777983708 | 3.89° C | 78% | 1008.3 hPa | 0 mm | - | - | - |
| 1777983108 | 3.89° C | 78% | 1008.3 hPa | 0 mm | - | - | - |
| 1777982510 | 3.89° C | 79% | 1008.3 hPa | 0 mm | - | - | - |
| 1777982041 | 3.89° C | 79% | 1008.3 hPa | 0 mm | - | - | - |
| 1777981908 | 3.89° C | 79% | 1008.3 hPa | 0 mm | - | - | - |
| 1777981308 | 3.89° C | 78% | 1008.3 hPa | 0 mm | - | - | - |
* Rain latest hour (hover to see other rain measurements)
** Current wind speed in m/s (hover to see current wind gust speed)